Simultaneous Nadir Overpasses (SNOs) Predictions

Prediction of SNOs between AQUA and METOP-A Satellite Orbit:

Table of predicted SNOs for the next 14.0 days since TLE Epoch: 1/12/2018
Index Date (AQUA) Time (AQUA) Lat,Lon (AQUA) SZA (AQUA ) Date (METOP-A) Time (METOP-A) Lat,Lon (METOP-A) SZA (METOP-A ) Distance(km) Time Diff (sec)
1 01/14/2018 12:50:26 74.08, -18.94 95.41 01/14/2018 12:49:30 74.10, -18.92 95.44 2.28 56
2 01/14/2018 13:39:52 -74.12, 148.61 84.55 01/14/2018 13:40:11 -74.14, 148.50 84.54 3.63 19
3 01/14/2018 14:29:32 74.74, -45.25 96.12 01/14/2018 14:30:38 74.76, -42.55 96.03 78.96 66
4 01/17/2018 08:24:42 74.09, 47.48 94.90 01/17/2018 08:23:49 74.09, 47.46 94.91 0.66 53
5 01/17/2018 09:14:09 -74.18,-145.09 85.01 01/17/2018 09:14:29 -74.18,-144.99 85.02 2.93 20
6 01/17/2018 10:03:50 74.85, 20.91 95.72 01/17/2018 10:04:55 74.85, 24.10 95.58 92.75 65
7 01/20/2018 03:58:58 74.11, 113.89 94.34 01/20/2018 03:58:08 74.08, 113.85 94.33 2.76 50
8 01/20/2018 04:48:25 -74.19, -78.68 85.57 01/20/2018 04:48:48 -74.17, -78.61 85.60 3.27 23
9 01/22/2018 23:33:13 74.13,-179.72 93.74 01/22/2018 23:32:25 74.12,-179.65 93.74 2.33 48
10 01/23/2018 00:22:39 -74.16, -12.16 86.23 01/23/2018 00:23:06 -74.16, -12.23 86.24 2.16 27
11 01/25/2018 19:07:28 74.11,-113.23 93.05 01/25/2018 19:06:44 74.11,-113.28 93.06 1.44 44
12 01/25/2018 19:56:55 -74.19, 54.23 86.88 01/25/2018 19:57:24 -74.20, 54.27 86.88 1.73 29




NCC Satellite Simultaneous Nadir Overpasses (SNOs) Prediction Service
